Home   Weather   Bnei Brak   Past weeks

Flag for Israel Past Weather in Bnei Brak, Israel — Yesterday and Last 2 Weeks

Now
64 °F

Sunny.


Feels Like: 64 °F
Forecast: 53 / 72 °F
Wind: 8 mph from Northwest

Location: Dov Airport

Current Time: Jan 16, 2017 at 3:04:12 pm

Latest Report: Jan 16, 2017 at 1:50 pm


Visibility: 10 mi

Pressure: 30.07 "Hg

Humidity: 52%

Dew Point: 46 °F

Location of Bnei BrakLocation

Past Weather in Bnei Brak — Graph

°F

Bnei Brak Temperature Yesterday

Maximum temperature yesterday: 64 °F (at 1:50 pm)
Minimum temperature yesterday: 54 °F (at 5:30 am)
Average temperature yesterday: 59 °F

High & Low Weather Summary for the Past Weeks

 TemperatureHumidityPressure
High70 °F (Jan 6, 2:50 pm)94% (Jan 2, 7:50 pm)30.27 "Hg (Jan 2, 7:50 pm)
Low46 °F (Jan 10, 6:50 am)28% (Jan 10, 12:50 pm)29.89 "Hg (Jan 14, 11:50 pm)
Average57 °F62%30.09 "Hg
* Reported Jan 1 1:50 pm — Jan 16 1:50 pm, Bnei Brak, Weather by CustomWeather, © 2017

Note: Actual official high and low records may vary slightly from our data, if they occured in-between our weather recording intervals... More about our weather records

Advertising

Bnei Brak Weather History for the Previous 24 Hours

Scroll right to see more
 ConditionsComfort  
Time TempWeatherWind HumidityBarometerVisibility
1:50 pm
Mon, Jan 16
64 °FSunny.8 mph52%30.07 "Hg10 mi
12:50 pm64 °FSunny.7 mph49%30.07 "Hg10 mi
11:50 am63 °FSunny.6 mph56%30.09 "Hg10 mi
10:50 am64 °FSunny.2 mph49%30.12 "Hg10 mi
9:50 am59 °FSunny.3 mph55%30.15 "Hg10 mi
8:50 am55 °FPassing clouds.5 mph67%30.15 "HgN/A
7:50 am50 °FSunny.6 mph76%30.12 "Hg10 mi
6:50 am48 °FSunny.7 mph76%30.12 "Hg10 mi
5:50 am48 °FClear.6 mph82%30.12 "Hg10 mi
5:30 am48 °FClear.7 mph82%30.12 "Hg10 mi
10:50 pm
Sun, Jan 15
54 °FClear.6 mph77%30.15 "Hg10 mi
9:50 pm55 °FPassing clouds.5 mph72%30.15 "HgN/A
8:50 pm55 °FPassing clouds.5 mph77%30.15 "HgN/A
7:50 pm59 °FPassing clouds.3 mph68%30.12 "HgN/A
6:50 pm59 °FPassing clouds.8 mph68%30.12 "HgN/A
5:50 pm59 °FPassing clouds.7 mph68%30.09 "HgN/A
4:50 pm61 °FScattered clouds.9 mph63%30.07 "HgN/A
3:50 pm63 °FScattered clouds.12 mph56%30.07 "HgN/A
Weather by CustomWeather, © 2017

See weather overviewHow to use our weather pages